This demonstration page uses our WeatherBlox Daily Observations layout. Learn more.

41.55636, -103.73856

Hourly Observations for April 27, 2015

Temp ( °F °C ) Dew Point ( °F °C ) Humidity (%) Winds ( mph kmh ) Pressure ( in mb ) Visibility ( mi km ) Precip ( " mm )
12:53 am 00:53 Cloudy 45 7 N/A N/A Calm 30.15 1021 7 11.26538 0 0
1:53 am 01:53 Cloudy 45 7 N/A N/A Calm 30.15 1021 7 11.26538 0 0
2:53 am 02:53 Cloudy 45 7 N/A N/A Calm 30.16 1021 7 11.26538 0 0
3:53 am 03:53 Cloudy 45 7 N/A N/A NNE 5 7 30.16 1022 7 11.26538 0 0
4:53 am 04:53 Cloudy 45 7 N/A N/A NE 5 7 30.17 1022 8 12.87472 0 0
5:53 am 05:53 Cloudy 45 7 N/A N/A N 5 7 30.19 1022 8 12.87472 0 0
6:53 am 06:53 Cloudy 45 7 N/A N/A NNE 5 7 30.22 1023 8 12.87472 0 0
7:53 am 07:53 Cloudy 46 7.8 40 4.4 79 79 Calm 30.24 1024 10 16.0934 0 0
8:43 am 08:43 Cloudy 47 8.3 42 5.6 83 83 Calm 30.21 1023 9 14.48406 0 0
8:51 am 08:51 Cloudy 46 8 41 5 82 82 Calm 30.27 1025 9 14.48406 0 0
8:53 am 08:53 Cloudy 47 8.3 41 5 80 80 Calm 30.25 1024 9 14.48406 0 0
9:23 am 09:23 Cloudy 47 8.3 41 5 80 80 Calm 30.27 1025 10 16.0934 0 0
9:32 am 09:32 Cloudy 46 8 41 5 82 82 WSW 3 6 30.27 1025 10 16.0934 0 0
9:39 am 09:39 Cloudy 47 8.3 41 5 80 80 SW 7 11 30.27 1025 10 16.0934 0 0
9:53 am 09:53 Cloudy 48 8.9 42 5.6 80 80 WSW 5 7 30.27 1025 10 16.0934 0 0
10:08 am 10:08 Cloudy 52 11 43 6 72 72 VRB 3 6 30.21 1023 10 16.0934 0 0
10:53 am 10:53 Cloudy 50 10 40 4.4 68 68 undefined N/A 30.28 1025 10 16.0934 0 0
11:04 am 11:04 Cloudy 50 10 41 5 71 71 W 5 7 30.27 1025 10 16.0934 0 0
11:49 am 11:49 Cloudy 50 10 39 4 67 67 WNW 6 9 30.27 1025 10 16.0934 0 0
11:53 am 11:53 Cloudy 50 10 40 4.4 68 68 W 5 7 30.28 1025 10 16.0934 0 0
12:41 pm 12:41 Cloudy 52 11.1 40 4.4 64 64 WNW 8 13 30.21 1023 10 16.0934 0 0
12:53 pm 12:53 Cloudy 52 11.1 40 4.4 64 64 W 7 11 30.26 1025 10 16.0934 0 0
1:53 pm 13:53 Mostly Cloudy 57 13.9 42 5.6 58 58 N 7 11 30.24 1024 10 16.0934 0 0
2:53 pm 14:53 Cloudy 56 13.3 41 5 57 57 W 9 15 30.24 1024 10 16.0934 0 0
3:53 pm 15:53 Cloudy 56 13.3 41 5 57 57 NW 9 15 30.23 1024 10 16.0934 0 0
4:53 pm 16:53 Cloudy 56 13.3 42 5.6 60 60 NNW 9 15 30.23 1024 10 16.0934 0 0
5:53 pm 17:53 Cloudy 55 12.8 41 5 59 59 NNW 8 13 30.23 1024 10 16.0934 0 0
6:53 pm 18:53 Cloudy 53 11.7 42 5.6 66 66 N 14 22 30.24 1024 10 16.0934 0 0
7:53 pm 19:53 Cloudy 50 10 42 5.6 74 74 N 10 17 30.27 1025 10 16.0934 0 0
8:53 pm 20:53 Cloudy 49 9.4 42 5.6 77 77 N 9 15 30.29 1026 10 16.0934 0 0
9:53 pm 21:53 Cloudy 48 8.9 41 5 77 77 NNE 12 19 30.31 1027 10 16.0934 0 0
10:53 pm 22:53 Cloudy 47 8.3 41 5 80 80 NNW 7 11 30.32 1027 10 16.0934 0 0
11:53 pm 23:53 Cloudy 47 8.3 41 5 80 80 N 5 7 30.34 1028 10 16.0934 0 0

Powered by AerisWeather